OneWeb SL0623

operational
NORAD ID: 55164 Int'l Des: 2023-004 Owner: ONEWEBN Country: UK Constellation: oneweb
LEOCIRCULARPOLARONEWEB_TYPE

关于 OneWeb SL0623

正在加载描述...

实时位置

正在加载3D地球...

即将过境

高度历史

Altitude vs Time

uPlot chart will show altitude changes over time

两行轨道根数

1 55164U 23004AA 26036.49669941 -.00000002 00000-0 -38607-4 0 9997
2 55164 87.9093 32.0450 0002503 76.4229 283.7181 13.17650719150245
Epoch: Feb 5, 2026 • Age: 13 hours

当前状态

高度 1197.1 km
速度 7.26 km/s
星下点 -5.15°S, 114.2°W
发射日期 Jan 10, 2023
运行时间 3 years
类型 internet

技术详情

分类 Payload
质量 148.00 kg
干质量 140.00 kg
总质量 148.00 kg
长度 1.30 m
直径 1.00 m
跨度 5.00 m
形状 Trapezoid+2 pan
制造商 ONEWUS
平台类型 ARROW
阶段状态 In Orbit
所有者/国家 ONEWEBN/UK

大型星座

Loading constellations...